[[{"header":{"parameterUnit":"m.s-1","parameterCategory":1,"la1":30.2991,"la2":30.254,"lo1":-89.0895,"lo2":-89.0444,"dy":0.0017,"dx":0.0017,"nx":28,"ny":28,"refTime":"2026-01-31T09:00:00:Z","depth":0,"parameterNumber":2,"parameterNumberName":"U-component_of_WINDS"},"data":[0,0,0,0,0,0,0,0,0,0,0,0,0,0,0,0,0,0,0,0,0,0,0,0,0,0,0,0,0,0,0,0,0,0,0,0,0,0,0,0,0,0,0,0,0,0,0,0,0,0,0,0,0,0,0,0,0,0,4.0875,4.0875,0,4.0914,4.0915,4.0915,4.0861,4.0859,4.0857,4.0855,4.0894,4.0897,4.09,0,0,0,0,0,0,0,0,0,0,0,0,0,4.0751,4.0753,4.0874,4.0875,4.0875,4.0914,4.0915,4.0915,4.0861,4.0859,4.0856,4.0854,4.0893,4.0896,4.09,0,0,0,0,0,0,0,0,0,0,0,0,0,4.0799,4.0754,4.0874,4.0853,4.0852,4.0914,4.0915,4.0916,4.0862,4.0859,4.0856,4.0853,4.0892,4.0896,4.09,4.0985,0,0,4.0913,4.0915,0,0,0,0,0,0,0,0,4.0796,4.0804,4.0856,4.0855,4.0853,4.088,4.0885,4.0939,4.0862,4.0858,4.0855,4.0852,4.0891,4.0896,4.0909,4.0987,4.0989,4.0914,4.0916,4.0918,4.0919,0,0,0,0,0,0,0,4.0793,4.0802,4.089,4.0857,4.0855,4.0841,4.0845,4.0895,4.089,4.0858,4.0854,4.086,4.089,4.0905,4.091,4.0989,4.0914,4.0917,4.092,4.0922,4.114,4.1143,0,0,0,0,0,0,4.0792,4.0799,4.0889,4.0891,4.0817,4.0846,4.085,4.0874,4.089,4.0889,4.0862,4.0857,4.09,4.0905,4.0911,4.1012,4.0918,4.0922,4.0925,4.1137,4.1141,4.1144,0,0,0,0,0,0,4.079,4.0801,4.0887,4.0844,4.0854,4.0851,4.0879,4.0876,4.0891,4.0893,4.0892,4.0879,4.0897,4.0905,4.0968,4.1013,4.0924,4.0928,4.1133,4.1138,4.1142,4.1214,0,0,0,0,0,0,4.0787,4.08,4.0832,4.0845,4.0857,4.0943,4.0881,4.0879,4.0899,4.0893,4.0908,4.0908,4.0896,4.0962,4.0972,4.1017,4.0931,4.1129,4.1135,4.1141,4.1208,4.1221,4.1232,0,0,0,0,0,4.0782,4.085,4.0834,4.0845,4.0897,4.0946,4.0952,4.0938,4.0903,4.0935,4.0937,4.0907,4.1006,4.0968,4.0979,4.1027,4.1126,4.1133,4.114,4.1202,4.1218,4.1232,0,0,0,0,0,0,4.0841,4.0851,4.0834,4.0908,4.0927,4.0937,4.0977,4.0955,4.0983,4.0976,4.0956,4.096,4.1027,4.1033,4.0991,4.111,4.106,4.107,4.1104,4.1119,4.1131,4.1128,4.0935,0,0,0,0,0,4.0863,4.0903,4.0909,4.0974,4.0985,4.098,4.1,4.0988,4.1006,4.1013,4.1019,4.1037,4.1073,4.1096,4.1129,4.1209,4.1212,4.1247,4.1259,4.1269,4.1278,4.1322,4.1338,4.1168,4.1168,4.1168,0,0,4.0908,4.0919,4.0944,4.0986,4.0999,4.1041,4.0986,4.1032,4.1062,4.102,4.1079,4.1085,4.1104,4.1176,4.1208,4.1183,4.1326,4.1279,4.1287,4.1289,4.1331,4.1347,4.1361,4.1173,4.1172,4.1171,0,0,4.1011,4.1023,4.1079,4.1094,4.1115,4.1111,4.1125,4.1139,4.1141,4.1201,4.1171,4.1207,4.1268,4.1283,4.1299,4.1412,4.1386,4.1423,4.1486,4.1529,4.1542,4.1554,4.1594,4.1609,4.1431,4.1432,4.1432,0,4.1064,4.1125,4.111,4.1159,4.1178,4.1144,4.12,4.1215,4.1246,4.126,4.1232,4.1309,4.132,4.1396,4.1423,4.1437,4.1452,4.142,4.1542,4.1553,4.1564,4.1602,4.1617,4.1436,4.1435,4.1435,4.1434,0,4.119,4.1233,4.1276,4.1307,4.1332,4.1384,4.1377,4.1404,4.139,4.139,4.1452,4.1464,4.1499,4.1516,4.1503,4.1591,4.1575,4.1545,4.1494,4.1585,4.162,4.1635,4.1442,4.144,4.1439,4.1438,0,0,4.1328,4.1353,4.1369,4.1384,4.1406,4.1438,4.149,4.1525,4.1549,4.1572,4.1614,4.1668,4.1642,4.166,4.1648,4.1686,4.1775,4.1651,4.1651,4.1674,4.1874,4.1896,4.1913,4.1759,4.1761,4.1764,4.1872,0,4.1431,4.1521,4.151,4.1595,4.1635,4.1605,4.165,4.1668,4.167,4.1704,4.1706,4.1745,4.1706,4.1717,4.1753,4.1756,4.1815,4.1748,4.1798,4.18,4.1793,4.1931,4.1954,4.2056,4.1886,4.1888,4.189,0,4.1563,4.1592,4.1682,4.17,4.1716,4.1756,4.1789,4.1822,4.1843,4.1842,4.1864,4.1846,4.1898,4.1848,4.1919,4.1875,4.1895,4.1899,4.1903,4.1906,4.1849,4.1938,4.2088,4.2103,4.1911,4.191,4.1908,0,4.1655,4.1717,4.1779,4.1793,4.1815,4.1844,4.1854,4.1873,4.1895,4.1924,4.1938,4.1973,4.1991,4.2018,4.201,4.1974,4.2084,4.2032,4.2084,4.2084,4.2107,4.2106,4.2262,4.2122,4.2121,4.2121,4.2121,0,4.1771,4.1827,4.1821,4.1859,4.1922,4.1909,4.1971,4.1978,4.1995,4.2034,4.201,4.2047,4.2034,4.2071,4.2065,4.2126,4.2134,4.2135,4.2132,4.2136,4.2136,4.2148,4.2141,4.2125,4.2124,4.2123,4.2123,0,4.1884,4.1882,4.1948,4.1964,4.197,4.2015,4.2029,4.2065,4.2066,4.2116,4.2127,4.2128,4.217,4.2166,4.2212,4.2208,4.2284,4.2273,4.2277,4.2274,4.2326,4.2321,4.2495,4.2517,4.2363,4.2364,4.2366,0,4.1957,4.2,4.2022,4.2047,4.206,4.21,4.2123,4.2114,4.2139,4.2168,4.2201,4.2241,4.2272,4.2341,4.2346,4.2382,4.2372,4.2431,4.2377,4.238,4.2373,4.237,4.2374,4.244,4.2442,4.2444,4.2445,0,4.2088,4.2086,4.2121,4.2157,4.2186,4.2213,4.2238,4.226,4.2253,4.2283,4.2326,4.2351,4.24,4.244,4.2475,4.2485,4.2464,4.2462,4.2476,4.248,4.248,4.2481,4.2305,4.2458,4.2456,4.2455,4.2455,4.2454,4.2183,4.222,4.2242,4.2283,4.2301,4.2325,4.236,4.2367,4.2403,4.2442,4.2435,4.2484,4.2505,4.255,4.2564,4.2603,4.2581,4.2601,4.2606,4.2611,4.2617,4.2476,4.2609,4.2609,4.2608,4.2608,4.2608,0,4.2313,4.2326,4.2363,4.24,4.2432,4.2411,4.2438,4.2466,4.251,4.2532,4.2565,4.2615,4.2655,4.2664,4.2702,4.2731,4.2723,4.2742,4.2739,4.2742,4.2634,4.2618,4.2748,4.2748,4.2748,4.2748,4.2748,4.2748,4.2384,4.2446,4.2446,4.2518,4.253,4.2579,4.2596,4.2619,4.2637,4.2695,4.2728,4.2734,4.2752,4.2791,4.2827,4.2829,4.2844,4.2867,4.2865,4.2763,4.2749,4.2736,4.2721,4.287,4.287,4.2969,4.297,4.2971]},{"header":{"parameterUnit":"m.s-1","parameterCategory":1,"la1":30.2991,"la2":30.254,"lo1":-89.0895,"lo2":-89.0444,"dy":0.0017,"dx":0.0017,"nx":28,"ny":28,"refTime":"2026-01-31T09:00:00:Z","depth":0,"parameterNumber":3,"parameterNumberName":"V-component_of_WINDS"},"data":[0,0,0,0,0,0,0,0,0,0,0,0,0,0,0,0,0,0,0,0,0,0,0,0,0,0,0,0,0,0,0,0,0,0,0,0,0,0,0,0,0,0,0,0,0,0,0,0,0,0,0,0,0,0,0,0,0,0,-8.9808,-8.981,0,-9.0051,-9.0054,-9.0057,-8.9994,-8.9989,-8.9984,-8.998,-9.0225,-9.0235,-9.0246,0,0,0,0,0,0,0,0,0,0,0,0,0,-8.9284,-8.9294,-8.9807,-8.9811,-8.9814,-9.0051,-9.0054,-9.0058,-8.9995,-8.9989,-8.9983,-8.9978,-9.0221,-9.0234,-9.0247,0,0,0,0,0,0,0,0,0,0,0,0,0,-8.9518,-8.9298,-8.9807,-8.9811,-8.9814,-9.005,-9.0054,-9.0058,-8.9996,-8.9989,-8.9982,-8.9975,-9.0217,-9.0233,-9.0249,-9.0495,0,0,-9.03,-9.0307,0,0,0,0,0,0,0,0,-8.9505,-8.9537,-8.9807,-8.9811,-8.9815,-8.9985,-8.996,-9.0205,-8.9998,-8.9927,-8.998,-8.9971,-9.015,-9.0172,-9.0233,-9.0507,-9.0517,-9.0301,-9.0311,-9.0318,-9.0323,0,0,0,0,0,0,0,-8.9489,-8.9527,-8.9904,-8.9811,-8.9816,-8.9799,-8.9825,-9.0006,-9.0076,-8.9932,-8.9928,-8.9958,-9.0151,-9.0218,-9.0239,-9.0521,-9.0301,-9.0315,-9.0325,-9.0332,-9.1009,-9.1016,0,0,0,0,0,0,-8.947,-8.9513,-8.9896,-8.9911,-8.9639,-8.9815,-8.9843,-8.9937,-9.0074,-9.0088,-8.9964,-8.9954,-9.0193,-9.0219,-9.0247,-9.0545,-9.0318,-9.0333,-9.0343,-9.1001,-9.1011,-9.1019,0,0,0,0,0,0,-8.9459,-8.9505,-8.9886,-8.9711,-8.9759,-8.9832,-8.9938,-8.9946,-9.0013,-9.0098,-9.011,-9.002,-9.0188,-9.0224,-9.0434,-9.0552,-9.0341,-9.0356,-9.0991,-9.1004,-9.1015,-9.1142,0,0,0,0,0,0,-8.9445,-8.9501,-8.9596,-8.9714,-8.9768,-9.0071,-8.9945,-8.9956,-9.0042,-9.0031,-9.0153,-9.0166,-9.0185,-9.041,-9.0451,-9.0571,-9.0369,-9.0981,-9.0997,-9.1011,-9.1127,-9.1157,-9.1182,0,0,0,0,0,-8.9426,-8.9621,-8.9602,-8.9648,-8.9889,-9.0078,-9.0109,-9.0128,-9.0052,-9.0147,-9.0202,-9.0162,-9.0533,-9.0432,-9.0478,-9.0605,-9.0974,-9.0992,-9.101,-9.1115,-9.1151,-9.1181,0,0,0,0,0,0,-8.9514,-8.9637,-8.9616,-8.9855,-8.9957,-9.0067,-9.0188,-9.0165,-9.029,-9.0275,-9.0292,-9.032,-9.0536,-9.0591,-9.0477,-9.085,-9.0742,-9.077,-9.0806,-9.0841,-9.0868,-9.085,-9.0382,0,0,0,0,0,-8.9561,-8.9706,-8.9805,-9.0006,-9.0058,-9.0115,-9.0198,-9.0205,-9.031,-9.0352,-9.0422,-9.0525,-9.0664,-9.0755,-9.0888,-9.1135,-9.1161,-9.1245,-9.1272,-9.1294,-9.1318,-9.1453,-9.1492,-9.1079,-9.1079,-9.1079,0,0,-8.966,-8.9745,-8.9835,-9.0026,-9.0105,-9.0254,-9.0151,-9.0312,-9.0423,-9.0376,-9.058,-9.0635,-9.075,-9.0981,-9.1085,-9.1033,-9.1438,-9.1317,-9.1334,-9.1346,-9.1476,-9.1515,-9.1549,-9.1091,-9.1089,-9.1087,0,0,-8.9916,-8.9995,-9.0172,-9.0255,-9.0377,-9.0413,-9.0456,-9.0571,-9.0606,-9.0811,-9.078,-9.091,-9.115,-9.1234,-9.1308,-9.1598,-9.1566,-9.1641,-9.1783,-9.1914,-9.1947,-9.1976,-9.2079,-9.2116,-9.1664,-9.1665,-9.1665,0,-9.0023,-9.0247,-9.0266,-9.0431,-9.0516,-9.0482,-9.0661,-9.074,-9.0899,-9.0958,-9.0898,-9.1199,-9.1274,-9.1524,-9.1595,-9.1656,-9.1705,-9.1627,-9.1941,-9.197,-9.1997,-9.2096,-9.2135,-9.1673,-9.1672,-9.1671,-9.167,0,-9.0373,-9.0529,-9.0657,-9.0813,-9.0913,-9.1084,-9.1128,-9.1226,-9.1224,-9.1267,-9.1476,-9.1566,-9.1717,-9.1776,-9.1775,-9.2027,-9.1991,-9.1936,-9.1827,-9.2045,-9.2138,-9.2176,-9.1685,-9.1682,-9.1679,-9.1677,0,0,-9.069,-9.0856,-9.0903,-9.0974,-9.1107,-9.1228,-9.1397,-9.1547,-9.1631,-9.1742,-9.1884,-9.2089,-9.2039,-9.2124,-9.2132,-9.2247,-9.2472,-9.2178,-9.2181,-9.223,-9.2754,-9.2795,-9.2839,-9.2452,-9.2459,-9.2465,-9.2745,0,-9.0958,-9.1259,-9.1281,-9.1552,-9.1696,-9.1667,-9.1814,-9.1912,-9.1956,-9.2084,-9.2132,-9.2278,-9.2201,-9.2252,-9.2365,-9.2421,-9.2577,-9.2401,-9.2583,-9.259,-9.2556,-9.2888,-9.2931,-9.3191,-9.2781,-9.2788,-9.2792,0,-9.1311,-9.1435,-9.1721,-9.1835,-9.1896,-9.2029,-9.2168,-9.2291,-9.2401,-9.2425,-9.252,-9.2513,-9.2686,-9.2572,-9.2811,-9.269,-9.2766,-9.2805,-9.2815,-9.2833,-9.2704,-9.2914,-9.3274,-9.3313,-9.285,-9.2845,-9.2841,0,-9.1515,-9.1753,-9.1955,-9.2016,-9.2154,-9.2248,-9.231,-9.2412,-9.2501,-9.2623,-9.268,-9.282,-9.2896,-9.3004,-9.3034,-9.2948,-9.3273,-9.316,-9.3297,-9.3297,-9.3366,-9.3362,-9.3744,-9.3416,-9.3415,-9.3414,-9.3413,0,-9.1812,-9.1988,-9.2048,-9.2172,-9.2368,-9.2392,-9.2585,-9.2641,-9.2733,-9.2867,-9.2849,-9.2975,-9.3007,-9.3139,-9.3163,-9.3358,-9.3392,-9.3416,-9.342,-9.3418,-9.3415,-9.3468,-9.3451,-9.3425,-9.3422,-9.342,-9.3418,0,-9.2072,-9.212,-9.2338,-9.2451,-9.2484,-9.2624,-9.272,-9.2839,-9.2882,-9.3052,-9.3093,-9.3159,-9.3313,-9.3354,-9.3538,-9.3554,-9.3784,-9.3771,-9.3748,-9.3747,-9.3882,-9.3869,-9.4311,-9.4371,-9.4003,-9.4007,-9.401,0,-9.2259,-9.2394,-9.2523,-9.2612,-9.2678,-9.2822,-9.2913,-9.2942,-9.3037,-9.3173,-9.3276,-9.3428,-9.3551,-9.3799,-9.3863,-9.4004,-9.3994,-9.414,-9.4015,-9.4009,-9.3997,-9.3989,-9.4002,-9.4163,-9.4167,-9.417,-9.4173,0,-9.2585,-9.2603,-9.2735,-9.2878,-9.2988,-9.31,-9.3208,-9.3282,-9.3325,-9.3434,-9.3592,-9.3688,-9.3877,-9.4028,-9.4171,-9.4232,-9.4211,-9.4212,-9.4251,-9.425,-9.4231,-9.4243,-9.3812,-9.4201,-9.4198,-9.4196,-9.4195,-9.4194,-9.2815,-9.2934,-9.3044,-9.3192,-9.3277,-9.3379,-9.3497,-9.3555,-9.3688,-9.3845,-9.3854,-9.4026,-9.4132,-9.4322,-9.4392,-9.4526,-9.4482,-9.4539,-9.4553,-9.4567,-9.4579,-9.421,-9.4552,-9.4551,-9.455,-9.455,-9.4549,0,-9.3141,-9.321,-9.3347,-9.35,-9.3617,-9.3588,-9.3706,-9.3806,-9.3958,-9.406,-9.4182,-9.4365,-9.4512,-9.4588,-9.4734,-9.4827,-9.4821,-9.4864,-9.4858,-9.4873,-9.4609,-9.4561,-9.4867,-9.4867,-9.4867,-9.4867,-9.4867,-9.4867,-9.3324,-9.3524,-9.3555,-9.3796,-9.3864,-9.4034,-9.4104,-9.4198,-9.428,-9.4485,-9.4608,-9.4657,-9.4749,-9.4902,-9.5035,-9.5054,-9.5108,-9.5158,-9.5171,-9.4923,-9.4891,-9.486,-9.4815,-9.5169,-9.517,-9.5423,-9.5425,-9.5427]}]]